Location: Holbach
(51.5399°N, 10.6036°E)
Time: 10:14:51
(UTC+00:00)

Cosmos 1092 Rocket - Pass Details

Date: 27 June 2021
Orbit: 955 x 994 km, 82.9° (Epoch: 28 July)

Event Time Altitude Azimuth Distance (km) Brightness Sun altitude
Exits shadow 00:37:16 18° 199° (SSW) 2,143 5.1 -13.3°
Maximum altitude 00:41:55 73° 281° (WNW) 1,004 4.0 -13.0°
Drops below altitude 10° 00:48:07 10° 7° (N) 2,711 7.7 -12.7°
Sets 00:50:39 0° 10° (N) 3,667 8.8 -12.6°
